Location: Unspecified
(0.0000°N, 0.0000°E)
Time: 00:06:57
(UTC+02:00)

Vanguard 1 Rocket - Visible Passes

Search period start: 19 August 2017 00:00
Search period end: 29 August 2017 00:00
Orbit: 653 x 4224 km, 34.3° (Epoch: 17 August)

Date Brightness Start Highest point End Pass type
(mag) Time Alt. Az. Time Alt. Az. Time Alt. Az.
19 Aug 11.3 00:56:47 10° W 01:17:05 28° NNW 01:33:14 10° NNE visible
19 Aug 11.3 03:49:04 10° NNW 03:54:21 12° N 03:58:49 10° N visible
19 Aug 10.4 06:23:00 10° NNW 06:27:41 14° NNE 06:31:20 10° NE visible
19 Aug 10.6 21:04:58 10° SW 21:25:37 85° NW 21:52:09 10° NE visible
19 Aug 11.2 23:37:58 10° W 00:00:40 40° NNW 00:21:19 10° NNE visible
20 Aug 11.4 02:25:31 10° NW 02:38:10 17° NNW 02:47:56 10° NNE visible
20 Aug 10.9 05:09:44 10° NNW 05:14:08 12° N 05:17:46 10° NNE visible
20 Aug 9.3 07:36:57 10° NNW 07:44:04 31° NNE 07:48:43 10° E visible
20 Aug 10.4 19:52:59 10° SW 20:10:34 73° SE 20:37:00 10° ENE visible
20 Aug 11.0 22:22:05 10° WSW 22:44:22 54° NW 23:08:36 10° NE visible
21 Aug 11.4 01:02:40 10° WNW 01:21:20 24° NNW 01:36:21 10° NNE visible
21 Aug 11.2 03:52:45 10° NNW 03:59:19 13° N 04:04:38 10° NNE visible
21 Aug 10.1 06:24:32 10° NNW 06:31:53 21° NNE 06:36:50 10° ENE visible
21 Aug 10.7 21:08:20 10° WSW 21:28:29 73° NW 21:54:54 10° NE visible
21 Aug 11.4 23:42:51 10° W 00:04:23 33° NNW 00:24:09 10° NNE visible
22 Aug 11.4 02:31:31 10° NW 02:43:10 16° N 02:52:11 10° NNE visible
22 Aug 10.7 05:11:06 10° NNW 05:18:39 16° N 05:24:06 10° NE visible
22 Aug 10.5 19:56:04 10° SW 20:13:20 85° SE 20:40:01 10° NE visible
22 Aug 11.2 22:26:11 10° W 22:47:42 46° NNW 23:11:15 10° NE visible
23 Aug 11.5 01:08:52 10° WNW 01:26:00 21° NNW 01:39:50 10° NNE visible
23 Aug 11.1 03:55:31 10° NNW 04:04:11 15° N 04:10:42 10° NE visible
23 Aug 9.6 06:26:35 10° NNW 06:35:55 30° NNE 06:41:32 10° E visible
23 Aug 10.9 21:11:55 10° WSW 21:31:32 62° NW 21:57:32 10° NE visible
23 Aug 11.5 23:48:13 10° WNW 00:08:31 29° NNW 00:27:09 10° NNE visible
24 Aug 11.4 02:36:33 10° NW 02:48:17 16° N 02:57:11 10° NNE visible
24 Aug 10.4 05:12:57 10° NNW 05:23:01 22° NNE 05:29:28 10° ENE visible
24 Aug 10.5 19:59:21 10° WSW 20:16:13 82° NW 20:42:49 10° NE visible
24 Aug 11.3 22:30:42 10° W 22:51:20 39° NNW 23:13:57 10° NE visible
25 Aug 11.5 01:14:59 10° NW 01:31:00 19° NNW 01:43:51 10° NNE visible
25 Aug 10.9 03:57:56 10° NNW 04:08:55 19° N 04:16:29 10° NE visible
25 Aug 9.1 06:28:55 10° NW 06:39:45 44° NNE 06:45:46 10° E visible
25 Aug 11.1 21:15:49 10° WSW 21:34:50 52° NNW 22:00:06 10° NE visible
25 Aug 11.6 23:53:58 10° WNW 00:13:04 25° NNW 00:30:28 10° NNE visible
26 Aug 11.3 02:40:33 10° NW 02:53:20 18° N 03:02:41 10° NE visible
26 Aug 10.0 05:15:01 10° NW 05:27:10 30° NNE 05:34:16 10° E visible
26 Aug 10.7 20:02:50 10° WSW 20:19:17 69° NW 20:45:25 10° NE visible
26 Aug 11.5 22:35:38 10° W 22:55:22 33° NNW 23:16:48 10° NNE visible
27 Aug 11.5 01:20:37 10° NW 01:36:12 19° N 01:48:31 10° NE visible
27 Aug 10.6 04:00:11 10° NNW 04:13:25 24° NNE 04:21:48 10° ENE visible
27 Aug 8.5 06:31:30 10° NW 06:43:24 64° NNE 06:49:36 10° ESE visible
27 Aug 11.3 21:20:03 10° W 21:38:27 43° NNW 22:02:40 10° NE visible
27 Aug 11.6 23:59:54 10° WNW 00:18:01 22° NNW 00:34:16 10° NNE visible
28 Aug 11.1 02:43:47 10° NNW 02:58:14 21° N 03:08:16 10° NE visible
28 Aug 9.6 05:17:15 10° NW 05:31:08 41° NNE 05:38:36 10° E visible
28 Aug 10.9 20:06:34 10° WSW 20:22:35 57° NNW 20:47:55 10° NE visible
28 Aug 11.6 22:40:57 10° WNW 22:59:48 28° NNW 23:19:54 10° NNE visible
